RH
94 100 100 100 100 100 100 81 70 62 68 55 66 98 97 60 88 100 100 100 100 99 64 38 32 33 30 27 26 27 29 32 31 33 34 34 30 38 50 54 83 78 69
100 100 96 100 100 100 100 100 96 79 71 63 61 46 79 80 51 89 100 93 100 100 100 99 82 53 31 27 27 26 26 27 28 29 30 30 29 38 48 47 70 84 72
100 100 100 100 100 100 100 100 100 100 96 76 70 58 55 72 82 61 82 100 89 100 100 100 100 100 73 57 35 29 28 26 25 26 26 28 34 41 44 45 54 78 75
100 99 100 100 100 100 100 100 100 97 99 100 100 99 81 65 60 64 56 95 78 88 98 100 100 100 100 100 100 89 59 39 31 31 32 33 38 43 42 43 52 63 95
93 90 100 100 100 100 100 100 92 100 100 96 97 100 100 96 91 73 68 63 81 77 86 100 100 100 100 100 100 100 100 100 80 44 36 36 36 37 39 43 46 71 90
39 52 76 99 100 100 100 100 100 98 100 100 100 98 93 95 100 100 89 68 78 68 60 78 84 100 100 100 100 100 100 100 100 99 81 60 42 39 40 45 52 97 99
14 16 37 43 78 100 100 100 100 100 100 100 100 100 99 94 100 100 100 86 63 87 84 72 84 70 96 100 100 100 100 100 100 100 100 100 100 87 64 51 53 70 100
18 16 14 24 26 42 74 91 93 98 100 100 100 100 100 100 97 89 90 70 78 83 92 76 70 77 78 85 95 100 100 100 100 100 100 100 100 100 100 98 100 100 100
20 19 18 17 15 15 20 41 76 83 97 99 100 100 100 100 100 100 100 96 86 77 76 75 62 67 77 67 80 87 83 100 100 100 99 100 100 100 100 100 100 100 100
18 20 21 18 16 16 16 15 15 37 80 86 88 89 100 100 100 100 100 100 69 48 56 67 66 66 80 78 85 72 73 72 72 98 92 98 100 100 99 100 97 100 100
21 18 18 18 20 17 16 15 17 15 15 39 76 85 95 100 100 100 100 100 100 80 51 48 57 65 80 69 76 81 81 77 63 70 71 80 88 89 100 92 94 92 98
23 19 18 16 16 17 18 16 16 15 16 15 18 48 81 95 84 100 100 100 100 100 90 64 47 62 78 74 73 62 58 83 81 74 55 76 90 81 89 99 93 92 97
25 23 20 20 20 16 14 16 17 15 16 16 15 15 19 54 79 77 99 100 100 100 100 96 81 56 55 70 100 75 45 40 68 91 80 75 74 93 100 99 100 92 89
21 20 19 19 18 19 18 15 14 17 16 16 17 15 14 14 24 40 46 97 100 100 100 100 100 99 63 59 64 84 85 62 43 64 77 70 73 79 80 84 94 97 84
25 23 20 18 16 16 17 17 16 15 15 16 14 15 15 14 13 12 13 16 43 100 100 100 100 100 100 90 75 71 69 78 81 49 54 74 75 66 78 94 97 94 99
16 14 14 14 14 14 14 14 14 14 14 15 16 17 16 15 15 14 13 12 14 66 100 100 100 100 100 100 100 81 77 59 60 70 88 92 91 75 65 76 100 100 100
14 14 14 14 13 13 13 13 14 14 14 14 14 15 16 16 14 15 14 13 12 14 78 100 100 100 100 100 100 100 100 70 51 53 76 100 100 96 81 72 87 100 100
16 14 12 11 10 9 8 9 10 11 12 14 13 14 14 16 17 16 15 14 13 12 13 91 100 100 100 100 100 100 100 100 83 61 65 100 100 100 78 73 78 57 46
6 5 4 5 4 4 5 5 6 6 7 9 11 13 14 15 15 17 18 16 16 14 13 12 92 100 100 100 100 100 100 100 100 81 67 73 96 99 93 50 54 54 49
4 4 3 3 3 3 3 3 3 4 5 6 7 9 11 12 14 14 15 16 17 16 14 13 13 78 100 100 100 100 100 100 100 100 96 75 87 91 88 82 54 52 42
3 3 3 3 3 2 3 2 2 2 2 3 4 5 7 9 11 12 13 14 15 16 15 15 13 14 97 100 100 100 100 100 100 100 100 100 100 100 100 82 79 60 49
3 4 3 3 3 3 3 3 2 2 2 2 2 3 4 5 7 9 11 12 13 14 15 14 15 14 14 46 100 100 100 100 100 100 100 100 100 100 100 98 75 96 80
4 4 4 4 3 3 3 3 3 3 3 3 3 2 2 3 5 6 8 10 11 14 14 14 14 14 15 15 67 100 100 100 100 100 100 100 100 97 100 100 100 100 100
4 4 4 4 4 3 3 3 3 3 3 3 3 3 3 3 2 4 5 7 9 11 12 13 13 14 14 16 15 87 100 100 100 100 100 100 100 99 92 87 96 100 97
5 4 4 3 3 3 3 3 3 3 3 3 3 3 3 3 3 2 2 4 6 7 9 11 13 14 14 16 16 14 90 100 100 100 100 100 100 100 100 100 100 98 82
5 4 4 3 3 3 3 3 3 3 3 3 3 4 3 3 3 2 2 2 3 6 7 8 10 12 14 14 16 14 14 97 100 100 100 100 100 100 100 100 100 100 100
Wind_Speed
70 68 61 65 66 65 63 62 61 61 58 60 55 51 51 50 44 40 41 36 37 38 39 38 38 39 38 38 38 40 40 39 38 38 37 35 32 32 30 28 25 24 24
70 70 74 66 70 69 66 67 67 67 66 62 63 63 58 56 58 48 45 47 42 41 40 41 40 41 41 40 40 41 41 41 41 40 39 38 35 32 33 30 28 28 27
80 79 78 76 74 74 71 72 70 69 70 69 69 67 67 62 61 58 55 51 50 44 43 42 42 42 43 42 42 42 42 42 43 42 41 38 36 34 33 34 33 31 30
93 90 91 85 84 82 81 79 78 76 74 73 71 70 68 70 67 66 64 60 58 53 51 47 47 46 44 41 42 44 44 44 43 42 41 40 38 38 37 35 36 36 34
96 95 94 96 92 90 88 90 88 83 83 83 79 77 74 72 72 73 72 70 65 64 57 54 50 49 49 48 48 46 44 46 46 44 43 42 41 40 41 38 36 36 35
89 93 97 99 100 100 96 95 92 92 90 87 84 82 79 78 76 71 74 74 69 71 68 64 60 54 53 50 50 49 45 43 45 46 44 44 44 44 43 41 35 34 33
90 92 97 97 104 107 106 106 104 96 95 96 96 90 89 87 85 84 83 76 73 72 73 72 68 65 59 55 55 53 51 48 45 44 44 45 45 45 44 41 36 35 33
94 94 95 97 98 102 112 112 112 109 108 101 99 98 97 94 93 91 92 86 83 81 79 77 75 72 69 64 60 59 55 54 51 48 45 44 43 44 44 44 41 35 35
101 101 103 101 102 102 103 110 113 115 116 117 111 108 106 104 98 97 100 97 97 92 88 83 81 79 76 75 71 68 65 58 58 56 53 48 43 41 40 39 37 34 35
105 108 109 108 109 109 109 108 107 111 120 120 120 119 116 112 106 103 103 101 106 101 96 91 87 83 81 80 79 77 72 71 65 63 61 57 53 50 44 43 41 39 38
109 110 113 115 116 115 116 116 116 115 113 116 123 123 120 117 117 117 111 111 105 105 105 101 95 87 82 81 83 81 79 78 76 71 71 65 61 58 55 54 50 47 46
120 118 117 119 122 124 123 123 123 123 122 119 120 125 127 126 122 119 121 118 116 108 108 107 103 96 94 88 88 85 83 81 82 80 79 72 67 64 62 60 58 53 51
132 131 127 126 126 130 131 131 130 129 128 128 127 126 128 133 132 125 124 126 124 121 115 114 114 110 104 97 92 92 90 86 84 83 81 79 77 68 66 64 63 61 57
142 141 139 136 133 131 135 138 137 137 135 135 133 134 132 131 130 132 130 127 127 131 126 122 117 115 113 110 105 101 99 94 90 88 89 87 83 75 74 71 68 64 60
150 148 144 140 138 137 138 140 140 143 142 142 140 139 139 139 139 138 132 129 129 134 129 125 123 120 115 112 110 109 104 98 97 93 91 90 89 83 76 73 71 69 64
143 139 136 134 135 135 135 137 143 146 146 147 147 146 145 144 144 143 140 136 131 131 134 129 126 125 124 118 116 110 107 106 101 97 93 95 93 91 89 82 74 71 71
138 135 133 130 129 128 128 128 129 135 146 151 152 150 151 150 148 147 145 143 137 132 133 135 131 128 127 122 120 116 112 109 105 101 95 97 95 93 89 86 83 75 72
145 143 140 138 136 131 128 127 128 134 135 137 146 154 156 157 155 153 150 149 145 141 133 136 137 134 131 125 122 120 116 112 105 104 99 100 98 97 90 88 85 78 71
128 126 124 126 127 128 129 131 132 132 132 135 142 144 149 155 162 163 159 155 153 149 144 134 139 137 133 130 129 124 118 115 110 106 104 103 102 101 97 91 89 87 82
109 108 108 110 112 114 117 123 127 134 139 143 144 146 148 150 153 158 165 164 161 157 152 146 138 143 142 130 129 127 122 122 114 110 110 105 104 102 99 96 93 92 91
101 101 102 103 103 103 107 111 115 121 129 137 146 150 151 153 154 155 158 160 161 162 161 155 143 142 146 142 136 129 127 127 121 117 113 110 108 105 104 102 97 98 96
91 93 94 94 95 97 102 105 107 109 113 121 130 141 152 156 158 159 158 156 157 160 161 161 153 147 143 145 147 140 129 129 127 121 116 112 111 110 107 105 98 97 95
86 87 87 86 88 90 93 95 99 102 106 110 115 123 134 147 159 162 163 160 159 157 159 161 160 151 152 146 152 145 139 133 131 124 122 117 118 115 111 106 103 99 97
81 81 80 79 79 83 85 88 90 91 96 102 107 113 118 128 141 156 165 168 164 161 159 158 159 158 153 158 149 153 146 139 135 126 125 119 117 118 117 114 111 110 105
76 77 75 74 74 78 78 81 81 83 87 92 97 104 110 116 125 137 149 163 170 168 163 160 157 158 160 160 160 153 151 149 139 129 130 123 117 113 107 107 105 104 104
72 71 71 70 71 73 74 75 75 77 81 85 88 94 101 107 115 122 131 145 159 168 171 166 161 158 159 161 162 155 152 152 149 138 129 128 116 112 109 104 99 94 92
Wind_Direction
242 240 244 244 241 243 242 242 238 237 240 236 233 231 235 230 233 250 257 250 259 253 250 249 249 248 249 250 250 250 250 254 258 262 266 271 277 281 284 295 287 289 297
243 245 248 244 242 242 239 241 244 243 241 240 243 241 230 237 233 233 244 241 249 253 255 252 252 252 252 251 253 253 253 254 258 261 265 270 272 275 279 286 291 285 290
240 243 243 246 246 243 241 243 245 247 246 245 246 248 247 241 236 234 235 238 237 241 242 252 254 257 256 255 255 255 255 256 257 260 263 265 270 272 276 282 288 286 283
248 248 245 242 244 247 248 247 247 246 248 247 246 248 249 251 247 247 240 241 238 232 239 241 248 253 254 257 260 258 257 257 259 260 262 263 265 268 274 278 284 287 283
248 250 249 244 240 241 247 250 249 248 249 248 246 245 246 248 250 249 247 246 242 243 239 235 242 247 251 252 254 256 258 259 259 260 261 263 265 268 273 276 279 279 284
250 252 250 248 247 246 242 244 248 249 246 246 246 245 245 246 246 248 249 246 247 248 244 245 238 238 247 249 251 254 255 256 258 259 261 263 266 269 271 273 272 271 275
250 249 248 252 250 247 248 248 246 244 247 246 246 244 245 246 248 249 246 247 246 247 248 245 247 245 239 243 248 249 251 254 255 257 260 261 264 266 269 270 268 268 267
255 255 252 249 250 251 251 249 248 247 244 244 244 244 244 246 248 250 251 249 248 246 247 246 243 245 244 244 243 245 249 255 254 256 258 259 261 263 265 267 270 266 265
256 256 254 253 250 249 250 250 249 247 248 249 246 244 244 244 244 245 248 249 248 248 247 248 246 247 248 247 246 246 246 246 253 254 256 257 259 261 262 262 261 257 260
257 255 256 255 253 253 250 249 248 249 247 247 247 246 246 244 244 242 242 244 247 248 248 247 248 249 249 250 251 251 248 250 247 249 251 254 256 259 258 258 257 255 255
260 258 255 253 254 252 251 251 249 249 248 248 246 245 245 245 244 244 242 242 245 249 248 247 247 247 246 250 253 253 253 254 251 251 252 252 253 256 259 260 260 259 259
263 261 258 256 253 252 251 250 249 249 248 247 248 247 245 243 243 243 245 243 244 243 248 249 248 247 247 251 250 251 253 255 258 259 254 251 252 253 256 258 260 260 262
267 265 262 259 256 254 251 249 249 249 248 247 247 248 247 245 244 244 243 246 243 243 244 249 251 249 248 249 249 252 255 253 253 255 255 255 252 252 254 256 257 259 261
270 267 264 261 258 255 253 250 247 246 247 247 245 247 247 246 245 244 243 241 244 244 245 247 247 249 250 250 249 250 253 256 253 251 255 256 254 254 254 254 255 256 260
269 268 266 264 261 257 252 250 248 247 244 245 246 245 246 246 246 246 244 241 240 241 245 244 245 245 247 249 249 250 250 252 253 253 253 254 256 256 255 255 256 257 259
272 272 270 268 265 262 257 252 248 246 246 244 242 244 244 244 245 246 246 245 242 239 239 241 241 241 244 246 246 247 248 250 250 250 251 252 252 255 257 255 253 255 261
277 276 273 271 267 263 259 256 253 249 247 244 244 242 242 244 244 245 246 247 245 241 237 237 239 237 240 242 243 244 245 248 250 248 247 249 248 250 254 257 254 254 256
275 273 271 269 266 263 260 256 252 248 245 244 243 243 240 240 242 244 244 245 246 245 241 234 237 237 238 238 240 242 245 246 246 246 245 244 244 248 252 253 252 254 257
270 268 265 263 260 257 255 252 248 246 244 243 240 238 239 240 239 239 242 242 244 244 244 240 235 235 236 236 238 240 243 244 243 245 244 243 244 246 248 251 252 251 257
270 267 264 261 258 255 253 250 247 244 242 240 238 237 235 235 237 238 238 239 240 242 242 241 238 236 234 235 237 239 239 241 242 242 244 243 244 245 246 248 250 252 256
268 266 264 261 259 256 254 251 248 245 242 241 238 236 234 233 233 234 235 236 238 238 239 240 239 237 235 233 234 235 238 240 240 239 241 242 243 244 245 247 248 251 255
268 265 263 261 260 257 255 252 250 247 244 242 240 238 235 233 232 231 232 233 234 235 235 237 237 237 237 235 234 234 234 236 236 240 239 238 241 244 245 247 249 250 252
267 264 262 260 258 256 254 252 250 248 247 244 241 239 237 235 233 232 231 230 231 231 233 233 235 235 236 237 234 232 233 234 235 236 240 238 239 240 243 245 247 247 247
265 264 262 260 258 255 253 251 249 247 245 244 242 241 239 236 234 232 231 230 229 229 229 231 232 233 233 236 233 234 232 233 234 234 238 240 241 244 243 243 245 247 250
265 264 262 260 258 257 254 252 250 247 245 244 243 241 239 237 236 234 233 231 229 229 228 228 228 230 231 232 235 234 233 232 232 233 236 237 239 241 244 243 244 246 247
266 264 261 259 258 256 254 252 250 248 246 244 244 242 240 238 236 235 233 232 230 229 228 227 227 226 229 230 232 234 235 232 232 231 232 236 237 238 241 244 246 247 245